Other Surface Observations
Issued by NWS Charleston, SC

Home | Current Version | Previous Version | Text Only | Print | Product List | Glossary On
Versions: 1 2 3 4 5 6 7 8 9 10 11 12 13 14 15 16 17 18 19 20 21 22 23 24 25 26 27 28 29 30 31 32 33 34 35 36 37 38 39 40 41 42 43 44 45 46 47 48 49 50
229
SXUS52 KCHS 301913
OSOCHS

MARINE OBSERVATIONS
NATIONAL WEATHER SERVICE CHARLESTON SC
300 PM EDT SAT JUL 30 2016

...DOWNTOWN CHARLESTON AND HARBOR...

CITY           SKY/WX    TMP DP  RH WIND       PRES   REMARKS
WATERFRONT PRK   N/A     93  75  55 S10       29.98F HX 104

...LAKE MOULTRIE...

CITY           SKY/WX    TMP DP  RH WIND       PRES   REMARKS
PINOPOLIS        N/A     95  72  46 W9        29.89F HX 103

...LAKE AND SUPPLEMENTAL COASTAL OBSERVATIONS...

STATION/POSITION TIME  TEMP    WIND        PRES    WAVE   SWELL
                       AIR SEA DIR/SP/G            HT/PER HT/PER/DIR
                 (UTC) (F)     (DEG/KT/KT) (MB)    (FT/S) (FT/S/D)
FORT PULASKI     1800   92 88  150/  8/ 14 1016.7F
SAPELO ISLAND    1800   96     160/ 11     1017.0S
WINYAH BAY       NOT AVBL
LAKE MURRAY      1800   92     200/  7/  9 1014.2F
ACE BASIN NERRS  NOT AVBL


...C-MAN AND BUOY OBSERVATIONS...

STATION/POSITION TIME  TEMP    WIND        PRES    WAVE   SWELL
                       AIR SEA DIR/SP/G            HT/PER HT/PER/DIR
                 (UTC) (F)     (DEG/KT/KT) (MB)    (FT/S) (FT/S/D)
BUOY 41004       1850   85 86  220/ 10/ 12 1015.7F   3/ 6   2/230/ 6
BUOY 41008       1850   86 88  170/ 12/ 14 1016.5F   1/ 8   2/120/ 8
FOLLY BEACH CMAN 1800   90     190/ 11/ 12 1016.2F
CAPERS NS BUOY   1808   87 87  200/ 10/ 14 1015.6F
FRIPP NS BUOY    1808   88 89  200/ 10/ 14 1015.8F
5E ST. MARYS GA  1901      87                N/A     1/ 8


STATION/POSITION TIME  TEMP    WIND        PRES    WAVE   SWELL
                       AIR SEA DIR/SP/G            HT/PER HT/PER/DIR
                 (UTC) (F)     (DEG/KT/KT) (MB)    (FT/S) (FT/S/D)
FRYING PAN BUOY  1900          210/ 10/ 12 1015.0F
BUOY 41025       1850   85 85  180/ 12/ 14 1015.4F   2/ 6   2/210/ 6
CAPE LOOKOUT NC  1800   86     200/ 12/ 14 1014.9F
BUOY 41002       1850   85 85  230/  8/ 10 1018.4F   3/ 6   2/250/ 6
BUOY 41010       1820   86 89  310/  2/  4 1018.3F
ST AUGUSTINE FL  1900   84 87  100/  8/  9 1018.2F

$$




USA.gov is the U.S. government's official web portal to all federal, state and local government web resources and services.